This demonstration page uses our WeatherBlox Daily Observations layout. Learn more.

Left ArrowRight Arrow

Hourly Observations for November 17, 2015

Temp ( °F °C ) Dew Point ( °F °C ) Humidity (%) Winds ( mph kmh ) Pressure ( in mb ) Visibility ( mi km ) Precip ( " mm )
12:53 am 00:53 Clear 39 3.9 33 0.6 79 79 Calm 30.32 1027 10 16 0.00 0.00
1:53 am 01:53 Clear 38 3.3 33 0.6 83 83 SSW 3 6 30.32 1027 10 16 0.00 0.00
2:53 am 02:53 Hazy 39 3.9 33 0.6 79 79 N 3 6 30.33 1027 6 10 0.00 0.00
3:53 am 03:53 Clear 37 2.8 32 0 82 82 Calm 30.31 1027 8 13 0.00 0.00
4:53 am 04:53 Mostly Cloudy 38 3.3 33 0.6 83 83 WNW 6 9 30.33 1027 10 16 0.00 0.00
5:53 am 05:53 Cloudy 41 5 35 1.7 79 79 Calm 30.31 1027 10 16 0.00 0.00
6:53 am 06:53 Mostly Clear 38 3.3 33 0.6 83 83 Calm 30.31 1026 10 16 0.00 0.00
7:53 am 07:53 Sunny 39 3.9 34 1.1 82 82 Calm 30.33 1027 8 13 0.00 0.00
8:53 am 08:53 Sunny 44 6.7 38 3.3 79 79 Calm 30.33 1027 10 16 0.00 0.00
9:53 am 09:53 Sunny 51 10.6 37 2.8 59 59 NNE 3 6 30.34 1027 10 16 0.00 0.00
10:53 am 10:53 Sunny 56 13.3 37 2.8 49 49 N 3 6 30.33 1027 10 16 0.00 0.00
11:53 am 11:53 Sunny 57 13.9 37 2.8 47 47 N 6 9 30.31 1027 10 16 0.00 0.00
12:53 pm 12:53 Sunny 58 14.4 37 2.8 46 46 N 7 11 30.30 1026 10 16 0.00 0.00
1:53 pm 13:53 Sunny 60 15.6 38 3.3 44 44 Calm 30.26 1025 10 16 0.00 0.00
2:53 pm 14:53 Sunny 61 16.1 40 4.4 46 46 Calm 30.25 1024 10 16 0.00 0.00
3:53 pm 15:53 Sunny 60 15.6 41 5 50 50 NNW 3 6 30.26 1025 10 16 0.00 0.00
4:53 pm 16:53 Clear 56 13.3 41 5 57 57 WSW 3 6 30.26 1025 10 16 0.00 0.00
5:53 pm 17:53 Clear 53 11.7 43 6.1 69 69 Calm 30.27 1025 10 16 0.00 0.00
6:53 pm 18:53 Mostly Clear 51 10.6 43 6.1 74 74 Calm 30.25 1025 10 16 0.00 0.00
7:53 pm 19:53 Mostly Cloudy 49 9.4 42 5.6 77 77 Calm 30.27 1025 10 16 0.00 0.00
8:53 pm 20:53 Clear 50 10 43 6.1 77 77 VRB 3 6 30.27 1025 10 16 0.00 0.00
9:53 pm 21:53 Clear 46 7.8 40 4.4 79 79 Calm 30.26 1025 9 14 0.00 0.00
10:53 pm 22:53 Clear 44 6.7 39 3.9 83 83 Calm 30.25 1025 10 16 0.00 0.00
11:53 pm 23:53 Clear 44 6.7 39 3.9 83 83 NW 6 9 30.27 1025 8 13 0.00 0.00

Powered by AerisWeather